Flag for Switzerland Weather past 2 weeks in Bern, Bern, Switzerland

Now
90 °F

Sunny.


Feels Like: 91 °F
Forecast: 62 / 94 °F
Wind: 5 mph from North

Location: Bern / Belp

Current Time: Jul 6, 2015 at 6:19:42 PM

Latest Report: Jul 6, 2015 at 5:50 PM


Visibility: 10 mi

Pressure: 30.09 "Hg (28.35 "Hg at 533m altitude)

Humidity: 43%

Dew point: 64 °F

Location of BernLocation

Historic Weather in Bern — Graph

°F

Bern temperature yesterday

Maximum temperature yesterday: 97 °F (at 4:20 PM)
Minimum temperature yesterday: 63 °F (at 5:20 AM)
Average temperature yesterday: 81 °F

Past Weeks' High & Low Weather Summary

 TemperatureHumidityPressure
High97 °F (Jul 4, 5:50 PM)100% (Jun 22, 12:50 AM)30.30 "Hg (Jun 22, 12:50 AM)
Low43 °F (Jun 24, 4:50 AM)24% (Jun 26, 5:20 PM)29.77 "Hg (Jun 22, 9:20 PM)
Average70 °F67%30.13 "Hg
* Reported Jun 21 5:20 PM — Jul 6 5:20 PM, Bern, Weather by CustomWeather, © 2015

Note: Actual official high and low records may vary slightly from our data, if they occured in-between our weather recording intervals... More about our weather records

Advertising

Bern weather history for previous 24 hours

 ConditionsComfort  
Time TempWeatherWind HumidityBarometerVisibility
5:20 PM
Mon, Jul 6
88 °FPassing clouds.3 mph46%30.09 "HgN/A
4:50 PM88 °FSunny.2 mph49%30.09 "Hg10 mi
4:20 PM90 °FSunny.3 mph46%30.12 "Hg10 mi
3:50 PM90 °FPassing clouds.3 mph46%30.12 "HgN/A
3:20 PM86 °FPassing clouds.3 mph52%30.12 "HgN/A
2:50 PM86 °FPassing clouds.8 mph55%30.15 "HgN/A
2:20 PM84 °FPassing clouds.5 mph58%30.15 "HgN/A
1:50 PM84 °FPassing clouds.3 mph55%30.15 "HgN/A
1:20 PM84 °FScattered clouds.6 mph58%30.15 "HgN/A
12:50 PM82 °FScattered clouds.5 mph58%30.15 "HgN/A
12:20 PM82 °FPassing clouds.7 mph58%30.18 "HgN/A
11:50 AM82 °FPassing clouds.5 mph58%30.18 "HgN/A
11:20 AM81 °FPassing clouds.3 mph62%30.18 "HgN/A
10:50 AM79 °FPassing clouds.5 mph65%30.18 "HgN/A
10:20 AM79 °FSunny.1 mph65%30.18 "Hg10 mi
9:50 AM79 °FPassing clouds.2 mph65%30.18 "HgN/A
9:20 AM77 °FScattered clouds.2 mph65%30.18 "HgN/A
8:50 AM73 °FPartly sunny.2 mph78%30.18 "HgN/A
8:20 AM72 °FPartly sunny.2 mph88%30.18 "HgN/A
7:50 AM72 °FPartly sunny.2 mph88%30.18 "HgN/A
7:20 AM68 °FPartly sunny.1 mph100%30.18 "HgN/A
6:50 AM66 °FScattered clouds.2 mph100%30.18 "HgN/A
6:20 AM68 °FPassing clouds.2 mph100%30.18 "Hg5 mi
5:50 AM68 °FPassing clouds.2 mph100%30.18 "HgN/A
5:20 AM68 °FFog.2 mph94%30.18 "Hg2 mi
4:50 AM68 °FPassing clouds.1 mph100%30.18 "HgN/A
4:20 AM72 °FPassing clouds.1 mph88%30.18 "HgN/A
3:50 AM72 °FPartly cloudy.2 mph88%30.15 "HgN/A
3:20 AM72 °FPassing clouds.2 mph88%30.15 "HgN/A
2:50 AM73 °FPassing clouds.3 mph89%30.15 "HgN/A
2:20 AM73 °FPassing clouds.5 mph78%30.15 "HgN/A
1:50 AM77 °FSprinkles. Passing clouds.5 mph65%30.12 "HgN/A
1:20 AM79 °FPassing clouds.6 mph58%30.12 "HgN/A
12:50 AM77 °FPartly cloudy.2 mph61%30.12 "HgN/A
12:20 AM81 °FPassing clouds.13 mph51%30.09 "HgN/A
11:50 PM
Sun, Jul 5
75 °FClear.2 mph65%30.09 "Hg10 mi
11:20 PM77 °FPassing clouds.3 mph61%30.09 "HgN/A
10:50 PM84 °FPassing clouds.7 mph40%30.07 "HgN/A
10:20 PM84 °FSunny.9 mph40%30.07 "Hg10 mi
9:50 PM88 °FBroken clouds.7 mph35%30.07 "HgN/A
9:20 PM88 °FPartly sunny.6 mph35%30.04 "HgN/A
8:50 PM88 °FBroken clouds.6 mph38%30.04 "HgN/A
8:20 PM90 °FPassing clouds.5 mph36%30.01 "HgN/A
7:50 PM91 °FPassing clouds.5 mph38%30.01 "HgN/A
7:20 PM93 °FPassing clouds.5 mph30%30.01 "HgN/A
6:50 PM93 °FPassing clouds.9 mph47%30.01 "HgN/A
6:20 PM91 °FPassing clouds.8 mph44%30.01 "HgN/A
Weather by CustomWeather, © 2015

See weather overviewHow to use our weather pages